Flag for Nigeria Weather past 2 weeks in Enugu, Nigeria

Now
88 °F

Passing clouds.


Feels Like: 102 °F
Forecast: 77 / 98 °F
Wind: 9 mph from Northeast

Location: Malabo/Fernando Poo

Current Time: Apr 21, 2015 at 1:41:58 PM

Latest Report: Apr 21, 2015 at 1:00 PM


Visibility: N/A

Pressure: 29.86 "Hg

Humidity: 75%

Dew point: 79 °F

Location of EnuguLocation

Historic Weather in Enugu — Graph

°F

Enugu temperature yesterday

Maximum temperature yesterday: 86 °F (at 4:00 PM)
Minimum temperature yesterday: 77 °F (at 3:00 AM)
Average temperature yesterday: 80 °F

Past Weeks' High & Low Weather Summary

 TemperatureHumidityPressure
High91 °F (Apr 14, 2:00 PM)100% (Apr 9, 5:00 AM)29.98 "Hg (Apr 9, 5:00 AM)
Low75 °F (Apr 7, 11:00 AM)62% (Apr 8, 3:00 PM)29.77 "Hg (Apr 6, 4:00 PM)
Average82 °F84%29.87 "Hg
* Reported Apr 6 12:00 Noon — Apr 21 12:00 Noon, Enugu, Weather by CustomWeather, © 2015

Note: Actual official high and low records may vary slightly from our data, if they occured in-between our weather recording intervals... More about our weather records

Advertising

Enugu weather history for previous 24 hours

 ConditionsComfort  
Time TempWeatherWind HumidityBarometerVisibility
12:00 PM
Tue, Apr 21
84 °FPassing clouds.9 mph79%29.89 "HgN/A
11:00 AM84 °FPassing clouds.9 mph79%29.89 "HgN/A
10:00 AM84 °FPassing clouds.7 mph79%29.89 "HgN/A
9:00 AM82 °FPassing clouds.7 mph79%29.89 "Hg5 mi
8:00 AM81 °FPassing clouds.No wind84%29.89 "Hg5 mi
7:00 AM77 °FPassing clouds.No wind94%29.86 "Hg5 mi
6:00 AM75 °FPassing clouds.No wind94%29.83 "Hg5 mi
5:00 AM75 °FPassing clouds.No wind94%29.83 "HgN/A
4:00 AM77 °FPassing clouds.No wind94%29.83 "HgN/A
3:00 AM77 °FPassing clouds.No wind94%29.83 "HgN/A
1:00 AM79 °FPassing clouds.No wind94%29.83 "HgN/A
12:00 AM79 °FPassing clouds.No wind94%29.86 "HgN/A
11:00 PM
Mon, Apr 20
81 °FPassing clouds.No wind89%29.86 "HgN/A
10:00 PM81 °FPassing clouds.No wind89%29.86 "HgN/A
9:00 PM81 °FPassing clouds.No wind89%29.83 "HgN/A
8:00 PM82 °FPassing clouds.No wind84%29.83 "HgN/A
7:00 PM82 °FPassing clouds.No wind84%29.83 "HgN/A
6:00 PM84 °FPassing clouds.6 mph84%29.80 "HgN/A
4:00 PM86 °FPassing clouds.8 mph75%29.80 "HgN/A
Weather by CustomWeather, © 2015

See weather overviewHow to use our weather pages